Вернуться в каталог

SL-16 R/B

АктивенLEO
NORAD 25407·ROCKET BODY·🇷🇺 Russia

Запущен Jul 28, 1998 с Baikonur Cosmodrome

Loading…

Ближайшие Пролёты (ближайшие 24 часа)

TLE

СвежийSource: Space-Track

Эпоха: Sep 14, 2026, 02:11 UTC

1 25407U 98045B   26257.09127635  .00000256  00000-0  15311-3 0  9996
2 25407  71.0109 145.3640 0005311 101.0600 259.1121 14.16211054453771

Отслеживайте SL-16 R/B в реальном времени с AllMySat

Download on the App Store